Wind_Speed
15 14 14 14 13 12 12 12 11 11 11 11 11 11 11 10 10 10 10 10 11 10 10 10 10 11 10 10 10 10 10 11 11 12 12 12 13 13 14 14 13 13 14
15 16 15 15 13 12 12 11 11 10 10 11 11 11 11 11 11 10 10 11 11 11 10 10 10 11 12 12 11 11 12 12 13 13 13 12 12 13 13 13 14 14 14
14 14 13 13 12 13 12 12 11 10 10 11 11 11 11 11 11 11 10 11 11 11 11 11 11 11 12 12 12 12 12 13 14 14 13 12 12 11 12 12 13 13 13
13 13 13 12 12 13 13 12 11 11 10 10 10 9 10 10 10 11 10 10 11 11 11 12 11 12 12 13 13 12 12 12 13 14 13 12 12 11 12 12 13 13 13
14 14 13 12 12 12 13 12 12 11 11 10 10 10 10 10 10 10 10 11 11 11 11 12 12 12 12 13 13 12 12 12 12 13 12 12 12 11 11 12 13 13 13
15 15 14 13 12 12 13 13 13 12 11 10 10 10 10 10 10 10 11 11 11 11 11 12 12 12 12 12 12 12 12 11 11 12 12 11 11 12 12 12 12 13 14
14 14 13 12 11 12 12 12 12 12 11 11 11 10 10 11 10 11 11 11 11 12 12 12 12 12 12 11 11 11 11 11 12 11 11 11 11 12 12 12 12 13 13
13 13 13 11 10 11 12 12 11 11 11 11 11 11 11 11 10 10 11 12 12 12 13 13 12 12 11 11 11 11 10 11 11 12 11 11 12 12 12 12 13 13 13
12 13 12 11 10 10 10 11 11 10 10 10 10 11 11 11 11 11 12 12 11 12 12 12 11 11 11 11 11 11 11 11 12 12 12 12 13 13 13 13 14 14 14
12 13 12 11 10 10 11 11 10 10 10 11 11 11 12 12 12 12 12 11 11 11 11 10 10 10 11 11 11 11 12 11 12 12 12 12 13 13 13 14 14 14 13
12 12 12 12 10 11 11 11 10 10 10 10 11 11 11 11 11 12 12 11 10 10 10 11 10 11 11 12 12 12 11 12 12 12 13 13 13 13 13 13 13 13 13
13 13 12 12 12 11 11 11 10 10 10 10 10 11 11 11 11 11 11 11 11 11 11 11 11 12 12 12 12 12 12 12 12 13 13 13 13 13 13 14 13 13 13
13 13 13 14 13 12 11 11 11 11 10 10 10 10 11 11 11 11 11 11 11 12 12 12 12 12 12 12 13 13 13 13 13 14 14 14 14 14 14 14 14 14 14
14 13 13 13 12 11 11 10 11 11 11 10 11 11 11 12 11 11 11 12 12 13 12 13 13 13 12 12 13 13 13 13 13 14 14 14 14 14 14 14 14 14 14
14 14 13 11 11 11 11 11 11 11 11 11 11 11 12 11 11 11 12 13 13 13 13 13 14 13 13 13 14 14 13 13 13 14 14 14 14 14 14 14 14 15 14
15 14 13 12 11 11 12 12 12 12 12 12 12 12 12 11 11 12 12 13 14 14 14 15 15 14 14 14 14 13 12 13 13 13 14 14 15 15 15 15 15 15 15
17 15 14 13 13 12 12 13 14 13 13 13 12 12 12 12 12 13 13 14 15 15 15 15 15 15 14 14 14 13 13 13 13 14 14 14 14 15 15 15 16 15 15
18 17 15 14 14 14 14 14 14 14 14 14 14 13 13 14 14 14 14 14 15 15 15 15 14 14 13 13 13 13 14 14 14 14 14 14 15 15 15 15 14 15 15
18 18 17 16 16 16 15 16 16 16 15 15 15 15 15 15 15 15 15 15 15 15 15 15 14 14 13 13 13 13 14 14 14 14 14 14 15 15 14 15 15 15 15
19 19 19 18 17 17 17 17 18 17 16 16 16 16 16 16 16 16 16 17 16 15 15 15 15 14 14 14 14 14 14 14 14 14 14 15 15 15 15 15 15 15 16
21 21 21 19 19 19 19 19 18 17 17 17 17 17 16 16 16 16 17 17 17 16 16 15 15 15 14 14 14 14 14 14 14 14 15 15 15 15 16 16 16 16 16
23 23 22 21 21 21 21 21 20 19 18 18 18 18 18 18 17 17 17 17 17 17 16 16 15 15 15 15 15 15 14 14 14 14 15 15 15 15 16 16 16 17 17
24 24 24 23 23 23 22 22 21 20 19 19 18 18 18 18 18 18 18 17 17 18 17 16 16 16 16 16 15 15 15 15 15 15 15 15 15 15 15 16 16 17 17
25 24 23 23 22 22 22 22 21 21 20 20 19 20 19 19 18 18 18 18 18 18 18 17 17 17 17 16 16 15 15 15 15 16 16 16 16 16 16 16 16 17 17
25 24 23 22 22 22 22 22 22 21 21 21 20 20 20 20 19 19 18 18 18 18 18 19 18 17 18 17 17 16 16 17 17 17 17 17 17 17 17 18 18 17 18
25 25 25 24 24 24 23 23 23 22 22 22 22 21 21 20 19 19 19 19 19 19 19 19 19 18 18 18 17 17 17 18 18 18 18 18 19 19 18 18 18 18 18
Wind_Direction
299 298 295 291 285 281 281 281 277 277 274 272 268 265 264 260 261 264 266 268 269 268 263 269 271 273 273 275 272 269 271 270 271 270 269 269 269 268 268 267 269 270 267
295 295 294 288 283 283 282 278 275 272 271 270 265 260 258 256 260 265 266 267 270 270 266 268 271 274 273 274 273 270 273 273 274 276 274 272 270 269 269 268 270 271 267
294 293 294 291 283 280 279 275 272 268 265 265 263 258 255 255 258 263 265 265 267 267 264 265 271 278 278 275 273 274 276 275 273 272 271 270 270 269 269 268 270 270 267
292 293 295 290 284 278 275 274 269 266 263 261 259 256 253 254 258 262 263 267 269 265 264 267 272 277 280 279 277 276 275 273 270 268 267 266 268 269 270 270 270 269 267
296 294 294 288 283 278 275 271 265 263 263 262 259 253 252 256 261 264 266 270 269 265 266 268 271 274 277 278 278 279 277 274 269 267 266 264 265 267 269 270 268 266 265
295 293 291 286 282 278 277 272 265 264 260 259 258 254 255 259 262 265 268 272 269 265 264 267 271 274 276 278 278 280 278 273 270 268 267 265 264 265 266 268 265 265 265
292 291 290 282 280 280 277 272 267 261 255 251 252 252 255 259 263 265 269 272 270 265 264 267 271 276 280 278 276 278 275 270 271 269 264 264 263 263 264 263 265 266 266
298 297 295 283 279 278 275 274 270 261 254 250 250 253 255 258 261 266 269 271 271 268 267 268 270 274 277 278 277 277 273 269 271 267 264 263 264 264 265 264 267 270 271
296 295 293 284 278 276 276 276 272 261 253 247 250 253 255 258 261 267 270 272 271 272 273 270 271 274 277 277 277 273 271 273 272 267 266 267 267 267 267 268 269 271 271
296 294 291 285 279 272 270 271 260 255 252 250 251 253 253 255 260 266 269 273 273 276 277 273 274 276 277 278 278 273 270 269 271 268 267 269 269 268 270 272 272 273 274
296 294 289 283 276 268 266 267 257 254 252 253 255 256 253 255 260 264 266 269 273 276 277 275 273 276 280 281 280 275 273 269 268 268 267 268 267 269 272 273 275 275 274
292 290 290 290 285 275 267 259 257 258 256 253 253 255 255 257 260 262 263 269 273 276 276 276 274 278 280 278 276 275 274 272 272 271 271 268 266 269 272 273 274 274 275
293 292 291 288 284 273 268 261 255 256 257 256 256 256 254 254 258 262 267 269 272 277 277 277 276 276 276 276 276 276 275 274 274 272 271 269 267 269 272 273 273 272 275
291 292 291 290 284 270 268 260 257 255 255 255 253 253 254 258 260 263 267 271 275 277 277 279 278 276 272 273 276 277 274 273 273 272 270 269 268 268 272 274 273 273 276
288 289 287 285 280 272 266 264 259 256 256 255 254 254 256 258 260 264 267 270 273 275 276 280 278 274 271 272 273 273 273 273 273 272 271 270 269 269 271 273 275 275 277
283 282 284 285 277 270 269 264 257 254 253 254 254 254 256 260 264 266 267 270 273 276 276 281 278 275 273 273 270 269 269 271 273 272 272 271 269 270 271 272 272 275 276
278 280 282 277 275 272 269 261 262 258 255 252 252 253 257 264 269 270 271 272 274 276 275 278 276 275 274 272 268 265 268 272 273 274 272 273 271 270 271 271 270 272 273
275 277 275 272 272 274 273 268 262 259 257 255 253 255 259 266 270 273 273 272 274 275 276 276 273 274 275 272 268 265 268 272 273 272 271 274 274 272 271 271 271 272 272
275 273 271 272 272 272 271 270 269 267 262 258 256 257 260 264 270 272 272 271 272 272 273 272 269 271 273 273 272 270 272 272 271 269 270 273 274 272 272 273 274 274 273
272 270 271 272 273 271 268 269 271 270 266 261 259 261 261 263 265 267 268 268 268 267 269 270 268 268 270 274 276 275 275 272 269 268 270 272 272 271 272 273 273 273 271
271 270 270 271 271 269 269 269 270 268 265 262 262 263 263 262 264 266 269 267 264 265 267 266 267 268 270 274 276 275 274 271 267 266 269 270 271 272 273 273 274 274 272
268 268 268 268 269 267 267 266 263 263 263 262 263 265 265 264 264 265 266 266 263 263 264 264 267 268 268 271 273 273 271 270 268 267 267 269 272 275 274 273 272 273 270
266 268 266 264 266 266 266 264 262 261 261 261 262 263 264 265 266 267 267 265 264 263 259 262 264 268 268 270 272 272 271 269 266 267 271 274 274 276 275 274 273 272 271
266 265 264 262 263 263 262 261 260 260 258 258 260 263 265 266 268 270 270 267 262 258 258 261 264 267 270 270 270 269 267 266 265 268 271 274 275 276 277 275 273 271 271
266 264 263 263 262 263 262 262 260 258 258 258 259 262 264 266 265 264 265 264 262 260 261 262 264 268 268 269 268 267 266 265 268 270 271 272 274 276 275 274 273 272 272
265 264 264 262 261 260 261 260 259 259 259 259 260 261 261 260 261 263 263 262 260 260 262 264 266 267 269 270 268 267 268 268 269 270 270 270 272 273 275 275 273 273 273
Height
5850 5848 5847 5846 5845 5845 5845 5844 5843 5844 5844 5844 5844 5844 5844 5845 5845 5846 5847 5847 5847 5847 5847 5847 5846 5847 5847 5846 5846 5846 5846 5845 5845 5845 5845 5844 5844 5844 5844 5843 5843 5843 5843
5846 5845 5843 5842 5842 5842 5841 5841 5841 5840 5841 5841 5841 5841 5842 5842 5843 5843 5844 5844 5844 5844 5844 5844 5844 5843 5843 5843 5843 5843 5842 5842 5841 5841 5841 5840 5841 5840 5840 5839 5840 5839 5839
5842 5841 5839 5839 5838 5838 5837 5837 5837 5837 5837 5837 5837 5838 5839 5839 5840 5840 5840 5841 5841 5841 5841 5841 5840 5840 5840 5840 5840 5839 5839 5838 5838 5837 5837 5837 5837 5836 5836 5836 5836 5835 5835
5839 5838 5836 5835 5834 5834 5833 5833 5833 5833 5833 5833 5834 5835 5835 5836 5837 5837 5837 5837 5838 5837 5837 5837 5837 5837 5837 5836 5836 5836 5835 5834 5834 5833 5833 5833 5833 5833 5832 5832 5832 5832 5832
5836 5835 5833 5832 5831 5830 5829 5829 5829 5830 5830 5830 5831 5832 5832 5833 5834 5834 5834 5834 5834 5834 5834 5834 5833 5833 5833 5832 5832 5831 5831 5830 5830 5829 5829 5829 5829 5829 5829 5828 5828 5828 5828
5832 5831 5829 5828 5827 5826 5826 5826 5826 5827 5827 5827 5828 5829 5829 5830 5830 5830 5830 5830 5830 5830 5830 5830 5830 5829 5829 5828 5828 5827 5827 5826 5826 5825 5825 5825 5825 5825 5825 5825 5824 5824 5824
5828 5827 5826 5824 5823 5822 5822 5822 5822 5823 5823 5824 5825 5826 5826 5826 5827 5827 5827 5827 5826 5826 5826 5826 5826 5825 5825 5824 5824 5823 5823 5822 5822 5821 5821 5821 5821 5821 5821 5821 5821 5820 5820
5824 5823 5822 5821 5820 5819 5818 5819 5818 5819 5820 5821 5822 5822 5823 5823 5823 5823 5823 5823 5823 5822 5822 5822 5822 5821 5821 5821 5820 5819 5819 5819 5818 5818 5817 5817 5817 5817 5817 5817 5817 5816 5816
5820 5819 5818 5817 5816 5815 5815 5815 5815 5816 5816 5818 5818 5819 5819 5820 5820 5820 5820 5819 5819 5819 5818 5818 5817 5817 5817 5817 5816 5816 5815 5815 5814 5814 5813 5813 5813 5813 5813 5813 5813 5813 5812
5817 5815 5814 5813 5812 5812 5812 5811 5812 5812 5813 5814 5815 5815 5816 5816 5816 5816 5816 5816 5815 5815 5815 5814 5814 5813 5813 5813 5812 5812 5811 5811 5810 5810 5810 5810 5809 5809 5809 5809 5808 5808 5808
5813 5812 5810 5809 5809 5808 5808 5808 5809 5809 5809 5810 5811 5811 5812 5812 5812 5812 5812 5812 5812 5811 5811 5811 5810 5810 5809 5809 5808 5808 5807 5807 5806 5806 5806 5806 5805 5805 5805 5805 5804 5804 5804
5809 5808 5807 5806 5805 5804 5804 5805 5806 5806 5806 5806 5807 5807 5808 5808 5809 5808 5808 5808 5808 5808 5807 5807 5807 5806 5805 5805 5805 5804 5804 5803 5802 5802 5802 5801 5801 5801 5801 5801 5800 5800 5799
5805 5804 5802 5802 5801 5800 5801 5801 5802 5802 5802 5803 5803 5804 5804 5805 5805 5805 5804 5805 5804 5804 5804 5803 5803 5802 5801 5801 5800 5800 5800 5799 5798 5798 5798 5797 5797 5797 5797 5797 5796 5795 5795
5800 5799 5798 5797 5797 5796 5797 5797 5797 5798 5798 5799 5799 5800 5800 5801 5801 5801 5801 5801 5800 5800 5800 5799 5798 5797 5797 5796 5796 5796 5795 5795 5794 5793 5793 5793 5793 5793 5793 5792 5792 5791 5791
5795 5795 5794 5793 5793 5793 5793 5793 5793 5794 5794 5795 5795 5796 5796 5796 5797 5797 5797 5797 5796 5796 5795 5795 5794 5793 5792 5792 5792 5791 5790 5790 5789 5789 5789 5788 5788 5788 5788 5788 5787 5787 5786
5790 5790 5791 5790 5790 5790 5790 5790 5790 5790 5790 5791 5791 5792 5792 5792 5793 5793 5793 5792 5792 5791 5791 5790 5789 5788 5788 5787 5787 5786 5786 5785 5785 5785 5784 5784 5784 5784 5783 5783 5783 5782 5781
5786 5785 5786 5786 5786 5786 5786 5786 5786 5786 5786 5787 5787 5788 5788 5789 5789 5788 5788 5788 5788 5787 5786 5785 5785 5784 5783 5782 5782 5781 5781 5781 5780 5780 5780 5780 5779 5779 5779 5779 5778 5778 5776
5781 5781 5781 5781 5781 5781 5781 5781 5781 5782 5782 5782 5783 5783 5784 5784 5784 5784 5784 5784 5783 5782 5782 5781 5780 5779 5779 5777 5777 5776 5776 5776 5776 5776 5775 5775 5775 5774 5774 5774 5773 5773 5772
5776 5776 5776 5776 5776 5776 5776 5776 5776 5777 5777 5778 5778 5779 5779 5780 5780 5779 5779 5779 5778 5778 5777 5777 5776 5775 5775 5773 5772 5772 5771 5771 5771 5771 5771 5771 5770 5770 5769 5769 5769 5768 5768
5770 5770 5770 5770 5770 5770 5770 5771 5771 5771 5772 5772 5773 5774 5774 5774 5775 5774 5774 5774 5773 5773 5772 5772 5771 5771 5770 5769 5768 5767 5766 5766 5766 5766 5766 5766 5766 5765 5765 5765 5764 5764 5763
5764 5764 5764 5763 5763 5764 5764 5764 5765 5765 5766 5766 5767 5768 5769 5769 5769 5769 5769 5768 5768 5768 5767 5767 5767 5766 5765 5765 5764 5762 5761 5761 5761 5761 5762 5761 5761 5760 5760 5760 5759 5759 5759
5757 5757 5757 5757 5757 5757 5757 5757 5758 5759 5760 5760 5762 5763 5763 5763 5763 5763 5763 5763 5762 5762 5762 5762 5762 5761 5761 5760 5759 5758 5757 5757 5757 5757 5757 5757 5756 5756 5755 5755 5754 5754 5753
5749 5749 5749 5750 5750 5750 5750 5750 5752 5752 5753 5754 5756 5757 5757 5758 5757 5757 5757 5757 5756 5756 5756 5757 5757 5756 5756 5756 5755 5754 5753 5753 5752 5753 5753 5752 5751 5751 5750 5750 5749 5749 5748
5741 5741 5741 5742 5742 5743 5743 5744 5744 5746 5747 5748 5750 5751 5751 5751 5751 5751 5751 5751 5751 5751 5751 5751 5751 5751 5751 5750 5750 5749 5749 5748 5748 5748 5748 5747 5746 5746 5746 5745 5744 5743 5743
5734 5734 5735 5735 5735 5736 5736 5737 5738 5740 5741 5742 5743 5744 5745 5745 5746 5746 5746 5745 5745 5745 5745 5745 5745 5745 5745 5745 5744 5744 5744 5743 5743 5743 5743 5742 5741 5741 5741 5740 5739 5738 5738
5726 5727 5727 5728 5728 5729 5730 5731 5732 5733 5734 5735 5736 5737 5738 5739 5739 5739 5740 5739 5740 5740 5739 5739 5739 5739 5739 5738 5738 5738 5738 5738 5737 5737 5737 5737 5736 5736 5735 5734 5733 5732 5732